PARUS-T1

operational
NORAD ID: 62656 Int'l Des: NNA 2025-009 Owner: TASA/PYRAS Country: J
LEOCIRCULARRETROGRADESSO

PARUS-T1について

説明を読み込み中...

リアルタイム位置

3D地球を読み込み中...

次回通過

高度履歴

Altitude vs Time

uPlot chart will show altitude changes over time

軌道要素

1 62656U 25009AZ 25340.89726783 .00020497 00000-0 76932-3 0 9997
2 62656 97.4126 59.6449 0000654 15.2472 344.8787 15.27239496 49618
Epoch: Dec 6, 2025 • Age: 19 hours

現在のステータス

高度 491.8 km
速度 7.62 km/s
衛星直下点 50.67°N, 85.24°E
打ち上げ日 Jan 14, 2025
運用期間 0.8 years
タイプ other

技術仕様

分類 Payload
質量 4.00 kg
乾燥質量 4.00 kg
総質量 4.00 kg
長さ 0.30 m
直径 0.10 m
スパン 0.30 m
形状 Box
製造者 PYRAS
バスタイプ Cubesat 3U
フェーズステータス In Orbit
所有者/国 TASA/PYRAS/J

大規模コンステレーション

Loading constellations...